Minot AFB, ND

6:16 PM CST on December 14, 2019 (GMT -0600)
Minot Air Force Base

Weather History for KMIB - July, 2019

Change the Weather History Date:

Tuesday, July 30, 2019

  Actual Average Record
Temperature  
Mean Temperature 62 °F -  
Max Temperature 81 °F 78 °F 96 °F (2007)
Min Temperature 43 °F 55 °F 43 °F (2019)
Degree Days  
Heating Degree Days 2    
Growing Degree Days 12 (Base 50)    
Moisture  
Dew Point 48 °F    
Average Humidity 56    
Maximum Humidity 85    
Minimum Humidity 32    
Precipitation  
Precipitation 0.00 in - - ()
Sea Level Pressure  
Sea Level Pressure 30.04 in    
Wind  
Wind Speed 5 mph (SE)    
Max Wind Speed 15 mph    
Max Gust Speed 25 mph    
Visibility 10 miles    
Events      
Averages and records for this station are not official NWS values.
T = Trace of Precipitation, MM = Missing Value Source: NWS Daily Summary

Daily Weather History Graph

Daily Weather History Graph

Search for Another Location

Airport or City:

Astronomy

Jul. 30, 2019 Rise Set
Actual Time 6:17 AM CDT 9:25 PM CDT
Civil Twilight 5:40 AM CDT 10:02 PM CDT
Nautical Twilight 4:51 AM CDT 10:50 PM CDT
Astronomical Twilight 3:50 AM CDT 11:50 PM CDT
Moon 4:21 AM CDT (7/30) 8:38 PM CDT (7/30)
Length of Visible Light 16h 22m
Length of Day
15h 08m
Waning Crescent, 3% of the Moon is Illuminated
Jul 30
Waning Crescent
Jul 31
New
Aug 7
First Quarter
Aug 15
Full
Aug 23
Last Quarter

Hourly Weather History & Observations

Time (CDT) Temp. Dew Point Humidity Pressure Visibility Wind Dir Wind Speed Gust Speed Precip Events Conditions
12:56 AM 49.5 °F 40.5 °F 71% 30.12 in 10.0 mi Calm Calm - N/A   Clear
3:10 AM 50.0 °F 39.2 °F 66% 30.10 in 10.0 mi Calm Calm - N/A   Clear
4:01 AM 44.6 °F 39.2 °F 81% 30.10 in 10.0 mi Calm Calm - N/A   Clear
4:56 AM 45.5 °F 40.1 °F 81% 30.10 in 10.0 mi Calm Calm - N/A   Clear
5:56 AM 43.2 °F 38.7 °F 84% 30.10 in 10.0 mi Calm Calm - N/A   Clear
6:56 AM 43.7 °F 39.6 °F 85% 30.09 in 10.0 mi Calm Calm - N/A   Clear
7:56 AM 50.4 °F 44.4 °F 80% 30.09 in 10.0 mi Calm Calm - N/A   Clear
8:56 AM 59.5 °F 48.2 °F 66% 30.09 in 10.0 mi SE 4.6 mph - N/A   Clear
9:56 AM 66.7 °F 51.1 °F 57% 30.08 in 10.0 mi SE 5.8 mph - N/A   Clear
10:56 AM 72.1 °F 52.0 °F 49% 30.06 in 10.0 mi SE 10.4 mph - N/A   Clear
11:56 AM 75.0 °F 52.2 °F 45% 30.05 in 10.0 mi SE 12.7 mph - N/A   Clear
12:56 PM 78.1 °F 51.1 °F 39% 30.03 in 10.0 mi SSE 10.4 mph - N/A   Clear
1:56 PM 79.9 °F 49.8 °F 35% 30.02 in 10.0 mi SE 15.0 mph 25.3 mph N/A   Clear
2:56 PM 81.0 °F 49.1 °F 33% 30.00 in 10.0 mi SE 13.8 mph - N/A   Clear
3:56 PM 81.3 °F 48.6 °F 32% 29.99 in 10.0 mi SSE 13.8 mph 21.9 mph N/A   Clear
4:39 PM 82.4 °F 50.0 °F 32% 30.00 in 10.0 mi South 11.5 mph 19.6 mph N/A   Clear
4:56 PM 81.0 °F 49.1 °F 33% 30.01 in 10.0 mi SSE 15.0 mph - N/A   Clear
5:56 PM 80.2 °F 50.9 °F 36% 30.00 in 10.0 mi SE 11.5 mph - N/A   Clear
6:56 PM 79.2 °F 49.8 °F 36% 29.99 in 10.0 mi SSE 11.5 mph 19.6 mph N/A   Clear
7:56 PM 77.4 °F 51.8 °F 41% 29.98 in 10.0 mi SSE 9.2 mph - N/A   Clear
8:56 PM 71.1 °F 55.0 °F 57% 29.98 in 10.0 mi SE 8.1 mph - N/A   Clear
9:56 PM 67.1 °F 54.9 °F 65% 30.00 in 10.0 mi SSE 6.9 mph - N/A   Clear
10:56 PM 63.3 °F 55.2 °F 75% 30.00 in 10.0 mi SSE 6.9 mph - N/A   Clear
11:56 PM 63.9 °F 55.4 °F 74% 29.99 in 10.0 mi SSE 6.9 mph - N/A   Clear